Stations météo

Publicité
Orange, France (7579): Température de l'air & dewpoint: 14.08.2017 19:00:00 - 20.08.2017 19:00:00 (CEST)Orange, France (7579): Température de l'air 5cm: 14.08.2017 19:00:00 - 20.08.2017 19:00:00 (CEST)Orange, France (7579): Vitesse du vent & gusts: 14.08.2017 19:00:00 - 20.08.2017 19:00:00 (CEST)Orange, France (7579): Direction du vent: 14.08.2017 19:00:00 - 20.08.2017 19:00:00 (CEST)Orange, France (7579): reduced air pressure: 14.08.2017 19:00:00 - 20.08.2017 19:00:00 (CEST)Orange, France (7579): visibility: 14.08.2017 19:00:00 - 20.08.2017 19:00:00 (CEST)Orange, France (7579): Quantités de précipitations: 14.08.2017 19:00:00 - 20.08.2017 19:00:00 (CEST)
Date & Time tt [°C] td [°C] tt 5cm [°C] ff [km/h] ff [knt] fx [km/h] fx [knt] dd ppp [hPa] vv [km] rr [mm]
20.08.2017 19:00:00 25,3 6,0 27,8 49 26 74 40 N 1018,6 13 0,0
20.08.2017 18:00:00 26,5 6,0 31,2 39 21 79 43 N 1018,8 13 0,0
20.08.2017 17:00:00 26,5 4,9 31,4 51 28 77 42 N 1018,8 11 0,0
20.08.2017 16:00:00 26,6 5,5 30,5 49 26 79 43 NNW 1018,7 12 0,0
20.08.2017 15:00:00 26,5 6,5 32,5 50 27 76 41 N 1018,9 12 0,0
20.08.2017 14:00:00 25,9 6,0 31,4 46 25 76 41 N 1019,9 13 0,0
20.08.2017 13:00:00 24,7 6,0 29,1 58 31 82 44 NNW 1019,7 10 0,0
20.08.2017 12:00:00 23,8 6,1 26,8 51 27 77 42 N 1020,3 11 0,0
20.08.2017 11:00:00 22,4 5,3 24,7 53 29 85 46 N 1020,4 12 0,0
20.08.2017 10:00:00 20,8 6,7 21,3 39 21 66 36 NNW 1020,9 13 0,0
20.08.2017 09:00:00 19,0 7,1 18,6 35 19 66 36 N 1020,8 14 0,0
20.08.2017 08:00:00 17,9 7,0 16,5 34 18 58 31 NNW 1020,5 15 0,0
20.08.2017 07:00:00 17,2 7,0 16,2 42 23 63 34 NNW 1019,7 49 0,0
20.08.2017 06:00:00 17,4 7,2 16,2 27 15 49 26 NW 1019,8 60 0,0
20.08.2017 05:00:00 17,8 6,9 16,3 23 12 44 24 NW 1020,3 60 0,0
20.08.2017 04:00:00 18,1 7,2 17,2 27 15 55 30 NNW 1020,1 60 0,0
20.08.2017 03:00:00 18,7 7,2 17,8 30 16 53 28 NNW 1019,8 60 0,0
20.08.2017 02:00:00 19,5 7,2 18,6 33 18 56 30 NNW 1019,7 60 0,0
20.08.2017 01:00:00 20,1 7,1 19,2 33 18 67 36 N 1019,4 60 0,0
20.08.2017 00:00:00 21,0 7,2 19,9 40 22 60 32 NNW 1019,2 60 0,0
19.08.2017 23:00:00 21,8 5,6 20,2 23 12 39 21 NNW 1019,4 60 0,0
19.08.2017 22:00:00 22,4 6,2 21,4 26 14 48 26 N 1019,0 60 0,0
19.08.2017 21:00:00 23,3 5,7 22,4 33 18 61 33 N 1018,1 60 0,0
19.08.2017 20:00:00 24,6 5,4 24,4 38 20 61 33 N 1017,5 39 0,0
19.08.2017 19:00:00 25,7 4,7 26,3 41 22 65 35 N 1017,0 25 0,0
19.08.2017 18:00:00 27,5 6,3 31,2 36 19 59 32 N 1016,8 22 0,0
19.08.2017 17:00:00 28,5 6,6 34,2 28 15 54 29 N 1017,1 20 0,0
19.08.2017 16:00:00 28,4 7,6 33,5 33 18 55 30 N 1017,3 20 0,0
19.08.2017 15:00:00 28,5 8,2 34,8 31 17 58 32 N 1017,5 20 0,0
19.08.2017 14:00:00 27,3 9,6 33,1 39 21 59 32 N 1017,8 18 0,0
19.08.2017 13:00:00 26,2 11,1 31,7 40 22 63 34 NNW 1017,9 18 0,0
19.08.2017 12:00:00 25,3 11,1 29,0 44 24 69 37 NNW 1017,5 19 0,0
19.08.2017 11:00:00 24,2 12,5 26,8 42 23 66 35 N 1017,9 23 0,0
19.08.2017 10:00:00 23,5 13,1 24,6 36 19 60 33 NNW 1018,3 32 0,0
19.08.2017 09:00:00 22,2 14,1 22,0 29 16 49 27 NNW 1018,0 55 0,0
19.08.2017 08:00:00 21,4 13,6 20,0 29 16 51 28 NNW 1017,4 52 0,0
19.08.2017 07:00:00 21,0 13,4 19,9 31 17 48 26 NNW 1017,0 60 0,0
19.08.2017 06:00:00 21,4 13,6 20,4 29 15 48 26 NNW 1017,0 60 0,0
19.08.2017 05:00:00 21,8 14,2 20,6 19 10 49 27 NNW 1017,1 60 0,0
19.08.2017 04:00:00 22,3 14,9 21,6 32 17 62 33 NNW 1016,7 60 0,0
19.08.2017 03:00:00 23,1 14,1 22,4 29 16 51 28 NNW 1016,7 60 0,0
19.08.2017 02:00:00 23,7 14,1 23,3 32 17 50 27 N 1016,3 60 0,0
19.08.2017 01:00:00 24,2 15,4 23,9 33 18 56 30 N 1016,3 60 0,0
19.08.2017 00:00:00 24,5 16,2 24,1 31 17 46 25 N 1016,1 60 0,0
18.08.2017 23:00:00 25,3 16,2 24,9 26 14 38 21 N 1016,1 60 0,0
18.08.2017 22:00:00 26,0 17,1 23,3 19 10 27 14 N 1015,8 60 0,0
18.08.2017 21:00:00 27,4 15,4 25,4 3 2 17 9 ESE 1015,4 52 0,0
18.08.2017 20:00:00 29,5 15,2 29,3 12 7 30 16 S 1014,8 48 0,0
18.08.2017 19:00:00 31,1 15,1 32,9 15 8 33 18 S 1014,6 41 0,0
18.08.2017 18:00:00 31,5 15,0 32,9 19 11 39 21 SSW 1014,5 46 0,0
18.08.2017 17:00:00 32,7 13,8 35,1 18 10 46 25 SSW 1014,6 20 0,0
18.08.2017 16:00:00 34,7 12,4 38,5 23 12 42 23 SSW 1013,9 19 0,0
18.08.2017 15:00:00 35,1 12,1 43,3 23 12 37 20 S 1013,9 19 0,0
18.08.2017 14:00:00 35,8 13,3 42,9 19 10 32 17 SSW 1014,2 46 0,0
18.08.2017 13:00:00 34,3 14,7 43,4 14 7 27 15 S 1014,8 48 0,0
18.08.2017 12:00:00 32,0 15,1 39,3 8 5 17 9 S 1015,5 20 0,0
18.08.2017 11:00:00 29,6 14,6 35,6 5 3 14 7 SSW 1016,3 38 0,0
18.08.2017 10:00:00 27,1 14,1 30,3 3 2 8 5 S 1016,7 19 0,0
18.08.2017 09:00:00 25,1 14,8 23,2 0 0 6 3 N 1016,7 20 0,0
18.08.2017 08:00:00 21,2 16,2 16,3 3 2 6 3 NNW 1016,7 39 0,0
18.08.2017 07:00:00 18,3 14,0 15,8 0 0 7 4 N 1016,7 42 0,0
18.08.2017 06:00:00 19,0 14,3 16,2 4 2 5 3 N 1016,6 45 0,0
18.08.2017 05:00:00 19,3 14,8 16,6 5 3 6 4 N 1016,5 42 0,0
18.08.2017 04:00:00 19,8 14,6 17,3 5 3 7 4 ESE 1016,6 40 0,0
18.08.2017 03:00:00 20,7 15,7 18,1 6 4 9 5 NNE 1016,5 37 0,0
18.08.2017 02:00:00 22,1 16,1 19,3 8 4 10 5 ESE 1016,6 36 0,0
18.08.2017 01:00:00 23,8 16,3 20,9 9 5 12 6 SE 1016,8 38 0,0
18.08.2017 00:00:00 24,2 15,1 21,1 7 4 12 7 ESE 1016,9 38 0,0
17.08.2017 23:00:00 28,0 14,6 22,8 10 6 14 8 WNW 1016,3 59 0,0
17.08.2017 22:00:00 29,2 14,2 24,9 4 2 18 10 NW 1016,6 58 0,0
17.08.2017 21:00:00 30,5 13,7 28,3 9 5 24 13 N 1016,2 59 0,0
17.08.2017 20:00:00 33,3 12,9 33,0 12 6 18 10 NNE 1015,7 55 0,0
17.08.2017 19:00:00 35,3 12,9 41,8 6 4 21 11 NNW 1015,3 47 0,0
17.08.2017 18:00:00 35,2 12,8 42,7 11 6 24 13 NNW 1015,6 49 0,0
17.08.2017 17:00:00 35,5 10,5 43,5 11 6 24 13 WNW 1015,7 20 0,0
17.08.2017 16:00:00 35,2 10,9 42,0 11 6 34 19 W 1016,0 20 0,0
17.08.2017 15:00:00 34,5 12,8 43,2 9 5 24 13 NNW 1016,5 20 0,0
17.08.2017 14:00:00 33,1 14,7 42,9 16 9 25 14 WNW 1017,2 60 0,0
17.08.2017 13:00:00 32,0 15,1 41,5 14 7 26 14 NW 1017,7 56 0,0
17.08.2017 12:00:00 31,0 15,8 38,0 11 6 27 15 N 1018,1 55 0,0
17.08.2017 11:00:00 29,0 16,5 32,5 19 10 33 18 N 1018,6 20 0,0
17.08.2017 10:00:00 27,5 17,1 26,4 23 12 33 18 N 1018,5 26 0,0
17.08.2017 09:00:00 23,9 16,4 22,0 4 2 6 4 NNW 1018,6 42 0,0
17.08.2017 08:00:00 19,7 14,5 15,2 2 1 6 3 S 1018,6 34 0,0
17.08.2017 07:00:00 16,9 13,2 14,9 5 3 7 4 E 1018,1 35 0,0
17.08.2017 06:00:00 19,4 15,1 15,6 7 4 13 7 NE 1017,6 35 0,0
17.08.2017 05:00:00 18,4 14,5 15,3 6 3 12 7 NNE 1017,5 36 0,0
17.08.2017 04:00:00 19,2 14,7 15,9 4 2 8 4 NNE 1017,7 38 0,0
17.08.2017 03:00:00 20,8 15,6 16,0 6 3 13 7 NW 1017,8 40 0,0
17.08.2017 02:00:00 20,0 15,2 16,3 3 1 8 4 NNW 1018,0 38 0,0
17.08.2017 01:00:00 21,3 15,6 17,5 7 4 11 6 NW 1018,3 40 0,0
17.08.2017 00:00:00 21,1 15,4 17,5 0 0 7 4 N 1018,1 43 0,0
16.08.2017 23:00:00 22,6 16,2 19,1 5 3 7 4 WNW 1018,0 45 0,0
16.08.2017 22:00:00 23,6 15,4 19,7 0 0 6 3 N 1018,0 45 0,0
16.08.2017 21:00:00 26,2 15,9 22,6 5 3 14 8 N 1017,6 48 0,0
16.08.2017 20:00:00 28,8 15,3 29,3 9 5 16 9 NNW 1017,4 51 0,0
16.08.2017 19:00:00 30,0 14,5 32,4 13 7 28 15 NW 1016,8 20 0,0
16.08.2017 18:00:00 31,5 12,8 34,7 16 9 30 16 NNW 1016,9 60 0,0
16.08.2017 17:00:00 29,9 14,0 32,4 14 8 28 15 NW 1017,0 53 0,0
16.08.2017 16:00:00 29,8 13,5 31,8 11 6 30 16 NNW 1017,7 20 0,0
16.08.2017 15:00:00 29,5 14,5 30,9 9 5 21 11 NNE 1018,4 55 0,0
16.08.2017 14:00:00 29,4 15,1 30,6 17 9 24 13 NNW 1018,3 39 0,0
16.08.2017 13:00:00 28,4 16,3 30,6 4 2 11 6 W 1018,4 47 0,0
16.08.2017 12:00:00 29,2 16,0 35,9 3 2 9 5 W 1018,9 55 0,0
16.08.2017 11:00:00 26,3 15,4 31,6 4 2 11 6 NNE 1019,2 20 0,0
16.08.2017 10:00:00 24,2 14,9 25,8 0 0 6 4 N 1019,4 36 0,0
16.08.2017 09:00:00 20,5 14,2 20,2 3 1 10 5 NW 1019,7 20 0,0
16.08.2017 08:00:00 18,0 14,3 13,5 2 1 5 3 - 1019,6 10 0,0
16.08.2017 07:00:00 15,6 13,4 13,0 4 2 6 4 SW 1019,7 50 0,0
16.08.2017 06:00:00 16,1 13,9 13,5 3 2 8 4 NW 1019,4 52 0,0
16.08.2017 05:00:00 15,7 12,3 13,6 4 2 8 4 ENE 1019,4 56 0,0
16.08.2017 04:00:00 16,0 12,4 13,7 4 2 6 4 NE 1019,6 58 0,0
16.08.2017 03:00:00 18,3 13,8 15,4 4 2 10 5 W 1019,7 57 0,0
16.08.2017 02:00:00 19,3 13,2 16,5 4 2 18 10 W 1020,1 60 0,0
16.08.2017 01:00:00 21,0 13,4 18,6 11 6 16 9 NE 1020,0 60 0,0
16.08.2017 00:00:00 21,8 12,6 20,4 8 5 15 8 ENE 1020,7 60 0,0
15.08.2017 23:00:00 23,1 11,8 20,5 8 5 12 7 W 1021,1 60 0,0
15.08.2017 22:00:00 23,0 10,8 20,6 3 2 11 6 S 1020,0 60 0,0
15.08.2017 21:00:00 24,8 11,0 23,2 10 5 22 12 SSE 1019,5 60 0,0
15.08.2017 20:00:00 27,3 10,5 27,7 12 7 33 18 S 1019,0 60 0,0
15.08.2017 19:00:00 28,5 7,1 29,0 19 10 34 19 SSW 1018,8 58 0,0
15.08.2017 18:00:00 31,4 11,7 33,6 18 10 29 15 SW 1018,3 52 0,0
15.08.2017 17:00:00 32,1 10,7 35,7 9 5 31 17 SW 1018,4 48 0,0
15.08.2017 16:00:00 32,0 11,2 35,4 16 8 33 18 S 1018,4 20 0,0
15.08.2017 15:00:00 31,4 11,7 34,6 16 9 28 15 SSW 1018,8 60 0,0
15.08.2017 14:00:00 28,9 11,9 31,9 14 8 32 17 SW 1019,4 56 0,0
15.08.2017 13:00:00 28,3 10,5 34,3 8 4 19 10 SW 1019,5 39 0,0
15.08.2017 12:00:00 26,6 14,0 30,4 4 2 13 7 W 1020,5 20 0,0
15.08.2017 11:00:00 24,2 14,3 30,0 4 2 9 5 SSE 1021,3 20 0,0
15.08.2017 10:00:00 22,5 15,8 25,5 2 1 8 4 ENE 1021,7 19 0,0
15.08.2017 09:00:00 19,1 16,3 18,4 3 2 9 5 SE 1021,9 5 0,0
15.08.2017 08:00:00 17,0 12,5 15,3 8 4 10 5 ENE 1021,7 48 0,0
15.08.2017 07:00:00 14,6 12,1 11,3 0 0 7 4 N 1021,3 42 0,0
15.08.2017 06:00:00 14,3 11,8 11,3 3 2 5 3 E 1020,3 39 0,0
15.08.2017 05:00:00 14,6 11,6 12,0 0 0 8 4 N 1020,3 40 0,0
15.08.2017 04:00:00 15,4 12,3 12,6 3 1 8 4 N 1020,5 41 0,0
15.08.2017 03:00:00 16,6 12,3 13,7 3 2 8 5 NNE 1020,7 45 0,0
15.08.2017 02:00:00 16,6 12,3 13,9 3 2 4 2 E 1020,8 47 0,0
15.08.2017 01:00:00 17,9 12,8 15,0 3 1 4 2 ESE 1020,7 49 0,0
15.08.2017 00:00:00 19,3 13,2 16,3 3 1 5 3 S 1020,8 50 0,0
14.08.2017 23:00:00 20,8 12,5 18,3 5 3 14 7 SE 1020,7 58 0,0
14.08.2017 22:00:00 23,2 11,3 22,1 9 5 21 11 S 1020,2 60 0,0
14.08.2017 21:00:00 24,4 11,7 23,2 8 4 19 10 S 1019,5 60 0,0
14.08.2017 20:00:00 26,4 11,7 27,4 14 7 29 16 SSW 1018,7 54 0,0
14.08.2017 19:00:00 28,3 11,4 32,3 18 10 32 17 SSW 1018,3 40 0,0

tt = Température de l'air
td = dewpoint
tt 5cm = Température de l'air 5cm
ff = Vitesse du vent
fx = gusts
dd = Direction du vent
ppp = reduced air pressure
vv = visibility
rr = Quantités de précipitations

stations d'obs. à proximité